[[{"header":{"parameterUnit":"m.s-1","parameterCategory":1,"la1":30.2992,"la2":30.254,"lo1":-89.0895,"lo2":-89.0443,"dy":0.0025,"dx":0.0025,"nx":19,"ny":19,"refTime":"2026-03-08T03:00:00:Z","depth":0,"parameterNumber":2,"parameterNumberName":"U-component_of_WINDS"},"data":[0,0,0,-0.1831,-0.1831,-0.1803,-0.1803,-0.1782,-0.1782,0,0,0,0,0,0,0,0,0,0,0,-0.1847,-0.1847,-0.1831,-0.1831,-0.1803,-0.1803,-0.1782,-0.1782,0,0,0,0,0,0,0,0,0,0,0,-0.1847,-0.1847,-0.1847,-0.1831,-0.1803,-0.1803,-0.1782,-0.1798,0,0,0,0,0,0,0,0,0,0,-0.1822,-0.1844,-0.1847,-0.1847,-0.183,-0.1803,-0.1803,-0.1798,-0.1797,-0.18,0,-0.1804,0,-0.1793,-0.1781,-0.1781,0,0,0,-0.1825,-0.1846,-0.1831,-0.1847,-0.183,-0.1803,-0.1814,-0.1797,-0.1795,-0.1798,-0.1804,-0.1803,-0.1792,-0.1781,-0.1781,-0.1818,-0.1818,0,0,-0.1826,-0.1846,-0.1832,-0.183,-0.1835,-0.1815,-0.1813,-0.1796,-0.1804,-0.1804,-0.1802,-0.1792,-0.1781,-0.1781,-0.1817,-0.1818,0,0,0,-0.1835,-0.1848,-0.1833,-0.1832,-0.1826,-0.1814,-0.1812,-0.1805,-0.1798,-0.1802,-0.1792,-0.1781,-0.1781,-0.1817,-0.1818,-0.1859,0,0,0,-0.1835,-0.1852,-0.1834,-0.1846,-0.1826,-0.1815,-0.1822,-0.18,-0.1797,-0.1792,-0.1781,-0.1781,-0.1816,-0.1817,-0.1856,-0.1874,0,0,0,-0.1846,-0.1854,-0.1852,-0.1847,-0.1836,-0.1815,-0.1807,-0.1799,-0.1791,-0.1781,-0.1781,-0.1816,-0.1817,-0.1854,-0.1871,-0.1889,0,0,0,-0.1864,-0.1889,-0.1853,-0.1879,-0.1837,-0.184,-0.1807,-0.1809,-0.1805,-0.1781,-0.1816,-0.1818,-0.1854,-0.1869,-0.1887,-0.1908,-0.1918,0,0,-0.1907,-0.1895,-0.1909,-0.1876,-0.189,-0.1843,-0.1864,-0.1842,-0.1823,-0.1821,-0.1821,-0.1857,-0.1871,-0.1889,-0.1972,-0.1981,0,0,0,-0.1929,-0.1939,-0.1939,-0.1936,-0.1919,-0.1906,-0.1879,-0.1871,-0.1868,-0.1826,-0.1868,-0.1876,-0.1886,-0.1895,-0.1902,-0.1909,-0.1823,-0.1823,-0.1823,-0.202,-0.1994,-0.2013,-0.1984,-0.1982,-0.1954,-0.1949,-0.1933,-0.1908,-0.1919,-0.1918,-0.1972,-0.1983,-0.1988,-0.1996,-0.1927,-0.1927,-0.1928,-0.1928,-0.2081,-0.209,-0.2056,-0.2063,-0.2035,-0.2041,-0.2015,-0.1997,-0.1998,-0.197,-0.1978,-0.1948,-0.1998,-0.2003,-0.1931,-0.193,-0.193,-0.1929,-0.1929,-0.2136,-0.2136,-0.2125,-0.2118,-0.2116,-0.2086,-0.2089,-0.2065,-0.2041,-0.2049,-0.2045,-0.2044,-0.2039,-0.2049,-0.2049,-0.2049,-0.2049,-0.205,-0.205,-0.2197,-0.2184,-0.2189,-0.2174,-0.2169,-0.2159,-0.2131,-0.2126,-0.2113,-0.2095,-0.2095,-0.2069,-0.2008,-0.1993,-0.2052,-0.2052,-0.2052,-0.2051,-0.2051,-0.2267,-0.2247,-0.2255,-0.225,-0.2231,-0.223,-0.2199,-0.219,-0.2182,-0.2184,-0.2156,-0.2116,-0.2102,-0.2096,-0.2083,-0.2162,-0.2162,-0.2162,-0.2162,-0.2313,-0.2304,-0.2306,-0.23,-0.2291,-0.2263,-0.2274,-0.2253,-0.2228,-0.2221,-0.2206,-0.2188,-0.2183,-0.2172,-0.2164,-0.2151,-0.2246,-0.2246,-0.2246,-0.2354,-0.2343,-0.2356,-0.2331,-0.2314,-0.23,-0.2309,-0.2303,-0.2271,-0.2249,-0.2215,-0.2212,-0.2181,-0.2173,-0.2149,-0.2138,-0.2115,0,0]},{"header":{"parameterUnit":"m.s-1","parameterCategory":1,"la1":30.2992,"la2":30.254,"lo1":-89.0895,"lo2":-89.0443,"dy":0.0025,"dx":0.0025,"nx":19,"ny":19,"refTime":"2026-03-08T03:00:00:Z","depth":0,"parameterNumber":3,"parameterNumberName":"V-component_of_WINDS"},"data":[0,0,0,2.513,2.5133,2.5305,2.5306,2.5503,2.5504,0,0,0,0,0,0,0,0,0,0,0,2.5064,2.5065,2.5129,2.5133,2.5305,2.5306,2.5502,2.5504,0,0,0,0,0,0,0,0,0,0,0,2.5063,2.5064,2.5065,2.5134,2.5305,2.5306,2.5502,2.5381,0,0,0,0,0,0,0,0,0,0,2.5218,2.5142,2.5064,2.5065,2.5135,2.5304,2.5306,2.5375,2.5388,2.5415,0,2.5433,0,2.5471,2.5516,2.5516,0,0,0,2.5145,2.5131,2.5191,2.5066,2.5136,2.5304,2.5231,2.5383,2.5397,2.5432,2.5436,2.5444,2.5475,2.5517,2.5518,2.563,2.563,0,0,2.5135,2.5087,2.5181,2.52,2.517,2.5225,2.5236,2.5392,2.5394,2.5437,2.5449,2.5478,2.5518,2.5519,2.563,2.563,0,0,0,2.51,2.508,2.5136,2.5191,2.5223,2.523,2.5242,2.5387,2.541,2.5451,2.548,2.5519,2.5521,2.563,2.563,2.5582,0,0,0,2.5095,2.5059,2.5132,2.5103,2.522,2.5307,2.5233,2.5399,2.5418,2.5479,2.5519,2.5523,2.563,2.563,2.5584,2.5568,0,0,0,2.5058,2.5055,2.5075,2.51,2.5172,2.5306,2.5338,2.5404,2.5435,2.5516,2.5523,2.563,2.563,2.5585,2.557,2.5584,0,0,0,2.5004,2.5029,2.5073,2.5113,2.5171,2.5274,2.5337,2.5417,2.5481,2.552,2.563,2.563,2.5585,2.5572,2.5585,2.5587,2.5583,0,0,2.5009,2.5028,2.5056,2.51,2.5183,2.5252,2.533,2.5435,2.5487,2.558,2.5583,2.5583,2.557,2.5584,2.5577,2.5574,0,0,0,2.5041,2.506,2.5093,2.5151,2.5232,2.53,2.5399,2.5438,2.5519,2.5524,2.5593,2.5587,2.5597,2.5601,2.5598,2.561,2.5629,2.5629,2.5629,2.4978,2.5044,2.5095,2.5181,2.5237,2.5339,2.5392,2.5462,2.5512,2.5527,2.5555,2.5543,2.5545,2.5543,2.5555,2.5561,2.5561,2.5561,2.5561,2.4992,2.5031,2.5097,2.517,2.524,2.5302,2.5402,2.5435,2.5504,2.5527,2.5539,2.5558,2.5537,2.5551,2.5558,2.5558,2.5559,2.5559,2.5559,2.4959,2.4989,2.5036,2.5129,2.5193,2.5281,2.5345,2.5406,2.5465,2.5477,2.5514,2.5515,2.5525,2.549,2.549,2.549,2.549,2.549,2.549,2.4906,2.4961,2.5007,2.5095,2.5142,2.5211,2.5315,2.5363,2.5432,2.5472,2.5473,2.5522,2.5522,2.5521,2.549,2.549,2.549,2.549,2.549,2.4897,2.4909,2.4979,2.5026,2.5136,2.5197,2.5275,2.5368,2.5417,2.5447,2.5494,2.5484,2.5508,2.5511,2.5511,2.5478,2.5478,2.5478,2.5478,2.487,2.4888,2.4974,2.5045,2.5122,2.52,2.5279,2.536,2.5447,2.5481,2.5495,2.55,2.55,2.5525,2.5527,2.5528,2.5501,2.5501,2.5501,2.4868,2.4897,2.4952,2.5035,2.5127,2.5204,2.5281,2.5361,2.5461,2.5503,2.551,2.5509,2.5518,2.5517,2.5559,2.5561,2.5564,0,0]}]]